Showing default

MEV-1, 44625

Orbit data source: Space-Track

MEV-1, 44625 is a payload satellite owned by Space Logistics (US) in GEO that was launched on Wed, 09 Oct 2019 UTC via a PROTON-M/BRIZ-M launch vehicle from the Tyuratam Missile And Space Complex (TTMTR). Payload-class satellites include a variety of spacecraft equipped with specific instruments for various scientific and technological missions. These include communications satellites like Starlink; space stations such as the ISS; scientific satellites like the Hubble; Earth observation satellites from companies like Planet Labs, Umbra, and HawkEye 360; GPS; miniature CubeSats for education and research; and military/defense satellites.

Not visible in the next 10 days
Identifier
44625, 2019-067B
Orbit
GEO
Country
Flag of USUS
Related business
Manufacturer
NGIS SSG
Mission
Operational Commercial Technology
Bus & Motor
GEOSTAR-3, IHI BT-4?
Mass
2,326 kg wet, ~2,000 kg dry
Launch date (UTC)
2019-10-09 (6 years ago)
Launch vehicle
PROTON-M/BRIZ-M
Launch site
Tyuratam Missile And Space Complex (TTMTR)
Object type
Payload
Rocket body
Debris
Shape & HBR
Box + 2 Pan, Unknown HBR
Radar Cross Section
30.713 m², Large (>1 m²)

Expand to show TLE details & history
Last TLE update: 2 months ago

TLE from 2 months ago
0 MEV-1
1 44625U 19067B   25212.93600035 -.00000138  00000-0  00000-0 0  9995
2 44625   0.3397  82.5138 0000340 231.5229 128.8627  1.00277994 21100
Epoch: 2025-07-31T22:27Z
TLE epoch observation values (Epoch: 2025-07-31T22:27:50.43Z)
Latitude
0.00461°
Longitude
156.15705°
Altitude
35,785.249 km
Speed
3.075 km/s
True Right ascension
05h 31m 38s
True Declination
0° 00' 17"
Sunlit
Object was in daylight at epoch
Visualization orbit readout
Latitude
Unknown
Longitude
Unknown
Altitude
Unknown
Speed
Unknown
Apparent Right ascension
Unknown
Apparent Declination
Unknown
Sunlit
N/A
Visualization observer readout
Local Sidereal Time
15:50:52
Azimuth
Unknown
Elevation
Unknown
Doppler factor
Unknown
Orbital elements
Apogee altitude
35,787.358 km
Perigee altitude
35,784.491 km
Semi-major axis
42,164.062 km
Eccentricity
0.00003
Inclination
0.3397°
RAAN
82.5138°
Arg. of periapsis
231.5229°
True anomaly
128.86573°
Mean anomaly
128.8627°
Eccentric anomaly
128.86422°
Mean motion
0.25069 °/min
Orbital period
1,436.06 mins
BSTAR
0
Loading maneuver chart data...
Computing Atmospheric mass density...
Loading historical data...
Loading historical data...
Loading historical data...
Loading historical data...
Loading historical data...
Loading historical data...
Loading historical data...
Other satellites on launch #67 in the year 2019 (2019-10-09 UTC)

Documentation

Showing up to 5 results
|